| time (UTC) | temp F | wind direction | speed MPH | gust MPH | rain 1hr in | rain 24hr in | rain mn in | humidity % | barometer mb |
| 20260502170341 | 51 | 134 | 0.0 | 3.0 | 0.00 | 0.02 | 0.02 | 90 | 1009.8 |
| 20260502164246 | 51 | 92 | 2.0 | 3.0 | 0.00 | 0.02 | 0.02 | 90 | 1009.8 |
| 20260502163221 | 51 | 155 | 4.0 | 6.0 | 0.00 | 0.02 | 0.02 | 90 | 1009.8 |
| 20260502161136 | 51 | 186 | 1.0 | 5.0 | 0.00 | 0.02 | 0.02 | 90 | 1010.2 |
| 20260502150908 | 52 | 163 | 12.0 | 14.0 | 0.00 | 0.00 | 0.00 | 85 | 1010.2 |
| 20260502130339 | 54 | 179 | 6.0 | 17.0 | 0.00 | 0.00 | 0.00 | 78 | 1010.8 |
| 20260502121126 | 57 | 171 | 11.0 | 18.0 | 0.00 | 0.00 | 0.00 | 67 | 1011.2 |
| 20260502114018 | 57 | 161 | 11.0 | 19.0 | 0.00 | 0.00 | 0.00 | 61 | 1011.5 |
| 20260502112951 | 58 | 166 | 16.0 | 20.0 | 0.00 | 0.00 | 0.00 | 60 | 1011.5 |
| 20260502111841 | 59 | 134 | 9.0 | 21.0 | 0.00 | 0.00 | 0.00 | 58 | 1011.5 |
| 20260502110841 | 58 | 166 | 15.0 | 17.0 | 0.00 | 0.00 | 0.00 | 54 | 1011.9 |
| 20260502105813 | 57 | 176 | 7.0 | 17.0 | 0.00 | 0.00 | 0.00 | 52 | 1011.9 |
| 20260502104743 | 58 | 155 | 8.0 | 17.0 | 0.00 | 0.00 | 0.00 | 57 | 1011.9 |
| 20260502103718 | 57 | 134 | 11.0 | 14.0 | 0.00 | 0.00 | 0.00 | 59 | 1012.2 |
| 20260502102651 | 57 | 186 | 8.0 | 16.0 | 0.00 | 0.00 | 0.00 | 58 | 1012.2 |
| 20260502101629 | 57 | 171 | 8.0 | 14.0 | 0.00 | 0.00 | 0.00 | 59 | 1012.5 |
| 20260502100601 | 56 | 118 | 3.0 | 17.0 | 0.00 | 0.00 | 0.00 | 60 | 1012.5 |
| 20260502091350 | 57 | 153 | 12.0 | 17.0 | 0.00 | 0.00 | 0.00 | 59 | 1012.5 |
| 20260502090319 | 57 | 157 | 9.0 | 15.0 | 0.00 | 0.00 | 0.00 | 59 | 1012.5 |
| 20260502070841 | 54 | 194 | 5.0 | 7.0 | 0.00 | 0.00 | 0.00 | 68 | 1013.9 |
| 20260502065813 | 53 | 221 | 4.0 | 7.0 | 0.00 | 0.00 | 0.00 | 71 | 1013.9 |
| 20260502064746 | 52 | 187 | 2.0 | 8.0 | 0.00 | 0.00 | 0.00 | 73 | 1013.9 |
| 20260502063724 | 51 | 202 | 4.0 | 10.0 | 0.00 | 0.00 | 0.00 | 75 | 1013.9 |
| 20260502061644 | 50 | 164 | 5.0 | 10.0 | 0.00 | 0.00 | 0.00 | 76 | 1014.2 |
| 20260502060620 | 50 | 175 | 2.0 | 10.0 | 0.00 | 0.00 | 0.00 | 76 | 1014.2 |
| 20260502055555 | 49 | 223 | 6.0 | 10.0 | 0.00 | 0.00 | 0.00 | 79 | 1014.2 |
| 20260502054531 | 49 | 213 | 5.0 | 9.0 | 0.00 | 0.00 | 0.00 | 79 | 1014.2 |
| 20260502053458 | 49 | 204 | 5.0 | 10.0 | 0.00 | 0.00 | 0.00 | 80 | 1014.6 |
| 20260502052439 | 48 | 155 | 8.0 | 10.0 | 0.00 | 0.00 | 0.00 | 80 | 1014.6 |
| 20260502051413 | 48 | 209 | 3.0 | 12.0 | 0.00 | 0.00 | 0.00 | 80 | 1014.6 |
| 20260502050346 | 48 | 185 | 5.0 | 13.0 | 0.00 | 0.00 | 0.00 | 81 | 1014.6 |
| 20260502045318 | 48 | 162 | 8.0 | 11.0 | 0.00 | 0.00 | 0.00 | 80 | 1014.6 |
| 20260502044253 | 48 | 127 | 7.0 | 12.0 | 0.00 | 0.00 | 0.00 | 79 | 1014.6 |
| 20260502043223 | 49 | 182 | 7.0 | 10.0 | 0.00 | 0.00 | 0.00 | 75 | 1014.6 |
| 20260502042158 | 49 | 169 | 12.0 | 12.0 | 0.00 | 0.00 | 0.00 | 71 | 1014.9 |
| 20260502041131 | 49 | 188 | 5.0 | 11.0 | 0.00 | 0.00 | 0.00 | 71 | 1014.9 |
| 20260502040109 | 48 | 171 | 5.0 | 10.0 | 0.00 | 0.00 | 0.00 | 71 | 1014.9 |
| 20260502035055 | 48 | 128 | 7.0 | 10.0 | 0.00 | 0.00 | 0.00 | 71 | 1014.9 |
| 20260502034039 | 48 | 189 | 3.0 | 9.0 | 0.00 | 0.00 | 0.00 | 72 | 1014.9 |
| 20260502033011 | 48 | 199 | 4.0 | 9.0 | 0.00 | 0.00 | 0.00 | 73 | 1015.2 |
| 20260502031950 | 48 | 229 | 5.0 | 6.0 | 0.00 | 0.00 | 0.00 | 73 | 1015.2 |
| 20260502030925 | 49 | 175 | 6.0 | 10.0 | 0.00 | 0.00 | 0.00 | 72 | 1015.6 |
| 20260502025904 | 49 | 179 | 3.0 | 11.0 | 0.00 | 0.00 | 0.00 | 72 | 1015.6 |
| 20260502024841 | 49 | 184 | 5.0 | 8.0 | 0.00 | 0.00 | 0.00 | 70 | 1015.6 |
| 20260502023809 | 50 | 216 | 5.0 | 9.0 | 0.00 | 0.00 | 0.00 | 70 | 1015.9 |
| 20260502022741 | 50 | 193 | 3.0 | 9.0 | 0.00 | 0.00 | 0.00 | 70 | 1015.9 |
| 20260502021714 | 50 | 194 | 4.0 | 10.0 | 0.00 | 0.00 | 0.00 | 70 | 1015.9 |
| 20260502020647 | 50 | 173 | 12.0 | 12.0 | 0.00 | 0.00 | 0.00 | 69 | 1015.9 |
| 20260502015609 | 50 | 170 | 7.0 | 9.0 | 0.00 | 0.00 | 0.00 | 70 | 1016.3 |
| 20260502013529 | 50 | 180 | 4.0 | 9.0 | 0.00 | 0.00 | 0.00 | 74 | 1016.3 |
| 20260502012456 | 51 | 188 | 6.0 | 10.0 | 0.00 | 0.00 | 0.00 | 70 | 1016.6 |
| 20260502011429 | 51 | 231 | 7.0 | 11.0 | 0.00 | 0.00 | 0.00 | 69 | 1016.6 |
| 20260502010404 | 51 | 190 | 7.0 | 17.0 | 0.00 | 0.00 | 0.00 | 68 | 1016.6 |
| 20260502005333 | 52 | 187 | 6.0 | 15.0 | 0.00 | 0.00 | 0.00 | 67 | 1016.6 |
| 20260502003245 | 53 | 217 | 5.0 | 11.0 | 0.00 | 0.00 | 0.00 | 63 | 1016.9 |
| 20260502002217 | 53 | 232 | 4.0 | 12.0 | 0.00 | 0.00 | 0.00 | 62 | 1016.9 |
| 20260502000138 | 54 | 255 | 9.0 | 12.0 | 0.00 | 0.00 | 0.00 | 61 | 1016.9 |
| 20260501235109 | 54 | 190 | 6.0 | 13.0 | 0.00 | 0.00 | 0.00 | 61 | 1016.9 |
| 20260501234047 | 54 | 214 | 6.0 | 14.0 | 0.00 | 0.00 | 0.00 | 62 | 1016.9 |
| 20260501232945 | 54 | 229 | 4.0 | 15.0 | 0.00 | 0.00 | 0.00 | 62 | 1017.3 |
| 20260501231917 | 54 | 257 | 12.0 | 14.0 | 0.00 | 0.00 | 0.00 | 63 | 1017.3 |
| 20260501230851 | 53 | 233 | 7.0 | 9.0 | 0.00 | 0.00 | 0.00 | 66 | 1017.3 |
| 20260501225831 | 52 | 220 | 9.0 | 12.0 | 0.00 | 0.00 | 0.00 | 70 | 1017.6 |
| 20260501224810 | 52 | 217 | 6.0 | 10.0 | 0.00 | 0.00 | 0.00 | 70 | 1017.6 |
| 20260501223747 | 52 | 196 | 4.0 | 9.0 | 0.00 | 0.00 | 0.00 | 72 | 1017.6 |
| 20260501221701 | 53 | 234 | 4.0 | 11.0 | 0.00 | 0.00 | 0.00 | 70 | 1017.6 |
| 20260501220635 | 53 | 197 | 4.0 | 11.0 | 0.00 | 0.00 | 0.00 | 70 | 1017.6 |
| 20260501215606 | 53 | 218 | 6.0 | 10.0 | 0.00 | 0.00 | 0.00 | 69 | 1017.6 |
| 20260501212418 | 53 | 200 | 9.0 | 11.0 | 0.00 | 0.00 | 0.00 | 69 | 1017.9 |
| 20260501211354 | 53 | 196 | 9.0 | 13.0 | 0.00 | 0.00 | 0.00 | 69 | 1017.9 |
| 20260501210325 | 54 | 186 | 5.0 | 13.0 | 0.00 | 0.00 | 0.00 | 67 | 1017.9 |
| 20260501205256 | 55 | 219 | 14.0 | 14.0 | 0.00 | 0.00 | 0.00 | 64 | 1017.9 |
| 20260501204224 | 55 | 196 | 8.0 | 16.0 | 0.00 | 0.00 | 0.00 | 62 | 1018.3 |
| 20260501203203 | 56 | 211 | 4.0 | 14.0 | 0.00 | 0.00 | 0.00 | 62 | 1018.3 |
| 20260501202136 | 56 | 224 | 9.0 | 14.0 | 0.00 | 0.00 | 0.00 | 60 | 1018.3 |
| 20260501201110 | 56 | 229 | 6.0 | 14.0 | 0.00 | 0.00 | 0.00 | 59 | 1018.3 |
| 20260501195035 | 57 | 202 | 8.0 | 15.0 | 0.00 | 0.00 | 0.00 | 58 | 1018.3 |
| 20260501194000 | 57 | 192 | 3.0 | 16.0 | 0.00 | 0.00 | 0.00 | 58 | 1018.3 |
| 20260501184754 | 58 | 224 | 13.0 | 19.0 | 0.00 | 0.00 | 0.00 | 59 | 1018.3 |
| 20260501183724 | 59 | 229 | 11.0 | 18.0 | 0.00 | 0.00 | 0.00 | 60 | 1018.3 |
| 20260501182707 | 60 | 221 | 9.0 | 17.0 | 0.00 | 0.00 | 0.00 | 56 | 1018.3 |
| 20260501181641 | 60 | 220 | 9.0 | 18.0 | 0.00 | 0.00 | 0.00 | 56 | 1018.3 |